DB0TGO-13 Weather Reports


time (UTC)temp
C
wind
direction
speed
KPH
gust
KPH
rain 1hr
cm
rain 24hr
cm
rain mn
cm
humidity
%
barometer
mb
20260510160002 20 320 1.6 0.0 0.00 0.00 0.00 38 1004.6
20260510154502 20 320 1.6 0.0 0.00 0.00 0.00 42 1005.0
20260510153002 20 290 6.4 0.0 0.00 0.00 0.00 42 1005.0
20260510151502 18 290 6.4 0.0 0.00 0.00 0.00 45 1005.5
20260510150002 18 310 4.8 0.0 0.00 0.00 0.00 45 1005.5
20260510144503 20 280 4.8 0.0 0.00 0.00 0.00 44 1005.8
20260510143002 20 280 4.8 0.0 0.00 0.00 0.00 44 1005.8
20260510141502 20 330 3.2 0.0 0.00 0.00 0.00 46 1006.1
20260510140003 20 330 3.2 0.0 0.00 0.00 0.00 46 1006.1
20260510134502 18 330 3.2 0.0 0.00 0.00 0.00 44 1006.4
20260510133003 18 130 3.2 0.0 0.00 0.00 0.00 44 1006.4
20260510131502 18 130 3.2 0.0 0.00 0.00 0.00 48 1006.7
20260510130002 18 290 6.4 0.0 0.00 0.00 0.00 48 1006.7
20260510124502 18 120 3.2 0.0 0.00 0.00 0.00 45 1007.0
20260510123002 18 120 3.2 0.0 0.00 0.00 0.00 45 1007.0
20260510121502 18 120 3.2 0.0 0.00 0.00 0.00 47 1007.4
20260510120002 18 220 8.0 0.0 0.00 0.00 0.00 47 1007.4
20260510114502 18 160 4.8 0.0 0.00 0.00 0.00 54 1007.6
20260510113002 18 160 4.8 0.0 0.00 0.00 0.00 54 1007.6
20260510111502 17 160 4.8 0.0 0.00 0.00 0.00 56 1007.9
20260510110002 17 140 6.4 0.0 0.00 0.00 0.00 56 1007.9
20260510104503 17 140 6.4 0.0 0.00 0.00 0.00 53 1008.2
20260510103002 17 170 8.0 0.0 0.00 0.00 0.00 53 1008.2
20260510101502 16 130 8.0 0.0 0.00 0.00 0.00 53 1008.4
20260510100003 16 130 8.0 0.0 0.00 0.00 0.00 53 1008.4
20260510094502 15 130 8.0 0.0 0.00 0.00 0.00 57 1008.9
20260510093002 15 170 4.8 0.0 0.00 0.00 0.00 57 1008.9
20260510091502 15 170 4.8 0.0 0.00 0.00 0.00 61 1008.9
20260510090002 15 130 6.4 0.0 0.00 0.00 0.00 61 1008.9
20260510084502 14 150 9.7 0.0 0.00 0.00 0.00 61 1009.3
20260510083002 14 150 9.7 0.0 0.00 0.00 0.00 61 1009.3
20260510081502 13 140 9.7 0.0 0.00 0.00 0.00 64 1009.7
20260510080002 13 140 9.7 0.0 0.00 0.00 0.00 64 1009.7
20260510074503 12 140 9.7 0.0 0.00 0.00 0.00 68 1009.8
20260510073002 12 150 8.0 0.0 0.00 0.00 0.00 68 1009.8
20260510071502 11 150 8.0 0.0 0.00 0.00 0.00 71 1009.9
20260510070002 11 150 8.0 0.0 0.00 0.00 0.00 71 1009.9
20260510064502 10 150 8.0 0.0 0.00 0.00 0.00 77 1010.1
20260510063002 10 140 4.8 0.0 0.00 0.00 0.00 77 1010.1
20260510061502 9 140 4.8 0.0 0.00 0.00 0.00 80 1010.1
20260510060003 9 120 4.8 0.0 0.00 0.00 0.00 80 1010.1
20260510054502 8 120 6.4 0.0 0.00 0.00 0.00 83 1010.1
20260510053002 8 120 6.4 0.0 0.00 0.00 0.00 83 1010.1
20260510051502 7 120 6.4 0.0 0.00 0.00 0.00 87 1010.5
20260510050002 7 120 3.2 0.0 0.00 0.00 0.00 87 1010.5
20260510044502 5 120 3.2 0.0 0.00 0.00 0.00 95 1010.6
20260510043002 5 100 3.2 0.0 0.00 0.00 0.00 95 1010.6
20260510041503 5 50 1.6 0.0 0.00 0.00 0.00 95 1010.8
20260510040002 5 50 1.6 0.0 0.00 0.00 0.00 95 1010.8
20260510034502 6 130 4.8 0.0 0.00 0.00 0.00 90 1010.7
20260510033002 6 130 4.8 0.0 0.00 0.00 0.00 90 1010.7
20260510031502 7 130 4.8 0.0 0.00 0.00 0.00 88 1010.7
20260510030004 7 110 8.0 0.0 0.00 0.00 0.00 88 1010.7
20260509204502 10 130 1.6 0.0 0.00 0.00 0.00 72 1013.4
20260509203002 10 140 1.6 0.0 0.00 0.00 0.00 72 1013.4
20260509201502 12 100 4.8 0.0 0.00 0.00 0.00 65 1013.3
20260509200002 12 100 4.8 0.0 0.00 0.00 0.00 65 1013.3
20260509194502 12 100 4.8 0.0 0.00 0.00 0.00 61 1013.1
20260509193002 12 110 4.8 0.0 0.00 0.00 0.00 61 1013.1
20260509191502 13 110 4.8 0.0 0.00 0.00 0.00 58 1013.0
20260509190003 13 120 3.2 0.0 0.00 0.00 0.00 58 1013.0
20260509184502 14 120 4.8 0.0 0.00 0.00 0.00 57 1013.1
20260509183002 14 120 4.8 0.0 0.00 0.00 0.00 57 1013.1
20260509181502 15 110 9.7 0.0 0.00 0.00 0.00 55 1013.1
20260509180002 15 110 9.7 0.0 0.00 0.00 0.00 55 1013.1
20260509174502 15 110 9.7 0.0 0.00 0.00 0.00 52 1013.3
20260509173002 15 110 11.3 0.0 0.00 0.00 0.00 52 1013.3
20260509171502 15 110 11.3 0.0 0.00 0.00 0.00 51 1013.6
20260509170002 15 100 9.7 0.0 0.00 0.00 0.00 51 1013.6
20260509164503 16 100 9.7 0.0 0.00 0.00 0.00 49 1013.9
20260509163002 16 60 6.4 0.0 0.00 0.00 0.00 49 1013.9
20260509161502 16 100 3.2 0.0 0.00 0.00 0.00 49 1014.2